RH
40 27 17 11 13 14 17 23 28 30 31 30 21 15 18 16 14 15 14 12 13 14 24 38 48 55 59 57 56 56 57 58 52 43 43 48 56 60 58 52 45 40 33 24 24 23 22 34 40 39 54 68 67 64 63 60 58 58 55 49 42 40 42 41 31 15 18 33 26 19 24 22 19 19 22 25 24 26 27 24 24 22 22 22 21
42 29 20 13 13 13 16 26 29 30 28 21 15 15 17 16 14 15 12 12 15 18 29 42 50 57 61 58 58 58 54 50 44 36 35 43 55 60 56 52 52 55 47 32 30 32 30 39 42 42 56 67 67 65 64 62 59 58 52 45 42 40 43 41 25 13 19 23 16 28 46 40 35 36 37 36 29 23 22 21 22 21 22 21 21
42 33 26 15 12 12 15 24 27 25 23 16 14 16 16 15 14 12 11 14 21 29 35 43 49 56 62 59 57 58 56 51 42 33 32 39 47 52 54 57 58 60 59 49 43 42 43 48 46 47 60 68 71 72 71 66 62 58 46 39 41 41 46 47 31 16 16 16 17 39 51 37 43 59 52 41 35 28 22 21 22 21 22 22 21
39 28 23 13 10 14 14 17 22 24 20 15 14 14 14 12 11 13 13 17 27 37 41 43 49 58 61 60 56 55 56 51 42 35 38 39 38 46 57 64 65 62 63 62 58 52 51 51 45 50 63 69 72 75 73 68 63 56 44 38 40 40 45 53 42 20 15 18 19 29 34 35 52 58 40 32 39 38 27 21 22 22 21 21 20
37 17 12 12 10 13 14 14 21 24 17 14 14 13 12 11 13 17 16 21 31 39 44 46 52 60 61 59 55 51 47 46 46 45 45 42 40 51 65 71 73 70 69 70 66 58 51 44 42 53 65 68 71 73 70 66 61 53 44 40 41 37 35 44 42 22 15 19 17 18 26 40 49 37 27 32 42 45 35 25 22 21 20 20 20
43 24 10 10 12 12 14 17 20 19 13 13 14 11 11 14 18 18 18 27 36 40 45 48 52 60 63 61 57 50 38 33 37 39 41 48 56 68 78 78 77 80 82 77 68 58 46 38 42 58 70 73 72 72 70 64 56 48 41 35 35 32 24 26 29 21 18 19 18 18 20 27 27 21 24 29 32 39 38 28 22 19 20 20 20
46 41 23 11 12 13 14 18 17 13 12 13 12 11 11 14 17 17 26 39 41 42 48 51 53 60 65 64 61 53 35 23 24 26 33 52 71 84 90 87 83 86 84 73 64 56 42 41 53 66 74 76 70 68 67 60 51 44 35 25 23 24 20 17 19 19 20 20 19 19 19 19 20 20 22 22 24 31 32 25 21 21 21 21 21
36 41 39 20 12 15 14 14 14 11 12 12 10 12 10 11 15 21 34 40 38 42 50 53 54 59 62 60 63 57 37 23 22 27 43 66 83 92 93 90 87 85 78 69 65 56 46 52 67 71 72 70 64 62 61 54 49 40 28 21 19 20 19 17 18 18 19 19 19 19 19 19 19 19 19 20 22 25 28 25 21 22 21 19 18
36 36 44 31 13 15 15 12 13 11 12 12 11 12 10 12 17 22 30 31 31 40 48 51 51 53 54 52 61 63 45 29 27 41 69 88 89 87 86 86 87 81 71 62 56 52 55 62 70 72 69 65 62 60 55 51 47 35 23 21 20 19 18 16 17 18 17 17 17 17 17 17 17 18 18 19 20 22 26 25 22 21 19 16 12
42 26 36 41 20 13 15 12 13 12 11 12 11 11 10 14 18 18 20 21 27 38 46 50 49 50 51 51 61 69 60 49 47 63 86 94 90 86 83 85 83 71 60 55 48 50 60 66 70 73 67 62 61 57 53 50 42 29 22 20 19 17 17 17 17 18 17 16 16 16 16 17 17 18 19 21 23 24 25 24 22 18 14 13 9
44 16 24 51 35 15 14 12 12 12 12 12 11 11 11 14 16 14 14 18 28 41 47 50 52 53 53 55 65 74 77 76 74 82 89 89 92 90 81 80 72 58 55 58 59 63 70 72 74 72 65 62 61 56 54 50 37 25 21 19 18 17 17 17 17 17 16 16 16 16 17 18 20 23 25 27 27 26 25 23 19 14 9 9 7
51 21 17 46 46 27 14 11 13 11 12 12 10 11 11 13 13 12 13 15 26 42 49 51 55 56 54 57 66 74 81 84 84 87 86 83 89 88 81 77 65 57 63 69 72 77 77 76 75 69 64 63 60 58 56 48 32 22 20 17 17 18 17 17 17 16 16 17 17 19 22 27 30 33 33 31 29 27 25 21 15 11 6 3 3
54 34 25 42 51 35 15 11 14 11 11 12 11 12 12 13 13 12 12 12 23 42 51 53 55 54 54 59 68 75 82 85 83 84 84 82 85 86 84 77 64 61 72 78 80 80 77 75 73 69 68 65 61 60 55 41 27 21 19 17 17 17 17 16 17 17 18 20 24 30 36 40 42 40 36 32 30 26 22 18 11 7 3 1 2
53 46 39 46 48 31 13 12 13 11 12 12 11 13 13 14 13 11 12 11 24 45 52 52 53 54 58 65 72 79 84 87 84 83 86 85 86 89 83 70 63 67 76 80 81 81 77 73 72 71 70 65 62 60 49 34 26 22 19 18 17 17 17 18 19 22 26 31 39 44 48 48 45 40 36 31 28 22 17 12 7 4 2 1 1
55 44 31 38 42 29 16 12 12 12 12 11 13 13 14 15 12 11 11 11 27 47 50 51 55 57 64 72 76 80 84 85 84 82 85 87 87 86 74 62 67 75 79 82 83 82 78 73 73 75 70 65 63 56 42 31 27 22 19 19 19 19 21 23 26 31 38 44 49 52 51 49 44 39 34 28 22 16 11 7 4 2 1 1 1
57 38 24 37 41 30 20 12 12 13 11 12 13 12 14 14 12 12 10 15 35 49 51 56 60 61 70 79 80 82 83 83 84 82 85 89 88 79 66 60 69 79 82 84 83 82 79 75 77 77 69 65 62 50 38 33 27 22 20 21 22 23 26 29 35 41 47 51 54 54 52 47 42 35 27 20 14 9 6 3 2 1 1 1 1
52 26 25 46 41 25 17 12 13 13 12 13 11 12 15 13 13 12 10 24 45 53 57 60 60 66 77 83 82 81 79 79 81 83 87 90 87 80 72 69 75 84 87 85 83 82 81 79 79 76 70 67 59 46 38 33 27 22 22 23 24 27 31 37 43 48 52 55 57 56 52 46 38 28 19 12 8 5 3 2 1 1 1 1 1
41 19 33 51 38 20 12 11 14 13 13 14 11 12 13 12 14 11 13 34 52 57 61 59 63 78 85 83 83 82 79 79 79 83 91 93 90 88 86 82 82 85 86 84 84 83 82 81 78 73 71 67 54 42 38 34 28 24 23 24 27 32 38 43 47 51 55 58 59 56 50 40 29 19 12 8 5 2 1 1 1 1 1 1 2
34 33 44 40 24 14 12 13 14 13 13 13 11 13 13 14 13 10 23 47 59 65 66 60 67 84 82 76 78 80 80 81 80 83 93 96 94 92 89 86 84 84 85 87 85 84 85 83 77 73 72 62 47 41 39 34 29 26 26 29 34 38 42 44 47 53 59 61 60 54 43 30 18 11 7 4 3 2 1 1 1 1 1 2 2
37 46 38 21 14 14 14 15 13 13 13 12 12 13 12 14 12 16 37 54 62 69 65 57 65 75 74 70 70 74 78 81 83 86 92 95 92 89 87 86 86 85 85 85 83 83 87 84 75 74 68 53 43 43 42 37 34 34 35 37 39 39 40 43 49 58 63 62 57 46 32 19 10 6 4 2 2 1 1 1 1 2 2 2 2
51 46 22 11 14 13 13 14 13 13 13 11 13 13 13 13 13 26 47 56 64 69 58 53 62 66 68 67 67 73 79 83 86 85 86 89 86 85 87 86 86 84 82 81 79 80 84 82 76 72 61 46 44 46 44 43 41 39 39 38 37 38 41 48 56 63 63 59 49 34 20 10 5 4 2 1 2 1 1 2 1 2 2 2 2
41 26 11 12 13 12 13 13 12 13 12 12 13 13 13 12 17 37 53 54 58 59 47 46 55 60 64 66 67 74 76 79 84 82 83 87 86 86 88 88 88 85 79 78 78 78 81 79 76 70 55 44 46 49 48 46 42 38 37 36 37 42 49 57 63 65 61 50 36 22 11 5 3 2 2 1 2 1 2 2 2 2 2 2 3
18 12 12 14 12 12 13 11 13 12 11 13 12 13 12 13 25 43 50 49 52 51 44 46 53 58 64 65 68 74 73 75 78 77 79 80 82 86 87 86 89 86 82 80 80 82 79 75 75 68 52 43 46 50 50 46 41 39 38 38 43 50 58 65 68 65 54 37 23 12 6 3 2 2 2 1 2 2 2 2 2 3 3 3 3
13 12 13 12 11 12 11 12 12 11 12 12 12 13 12 18 34 43 42 48 55 52 48 51 56 59 60 60 65 72 74 73 71 74 79 77 78 87 88 87 87 85 86 85 83 82 77 73 72 64 48 43 46 49 49 46 43 42 41 43 50 57 63 70 68 57 39 23 13 7 4 2 2 2 2 2 2 2 2 2 2 3 3 3 3
13 10 13 11 11 11 10 12 11 10 12 12 12 13 13 24 38 40 41 51 56 51 50 56 60 60 58 60 67 72 73 71 70 79 87 82 79 86 89 89 87 84 85 85 80 79 77 73 68 59 48 44 45 47 48 47 45 44 44 49 57 62 65 67 58 39 22 11 6 4 3 2 2 2 2 2 2 2 2 2 3 3 3 3 3
11 10 13 10 10 10 10 11 10 11 12 12 13 12 16 31 40 39 45 53 54 51 52 58 63 62 62 67 73 74 73 72 76 83 87 84 83 85 84 85 86 83 80 79 76 76 76 72 66 59 52 46 44 45 46 46 46 45 48 57 64 63 61 56 41 23 11 6 3 2 2 2 2 2 2 2 2 2 2 3 3 3 3 3 3
7 11 11 8 10 10 9 10 10 11 12 12 13 13 23 36 39 41 49 54 54 53 54 60 65 65 68 75 78 76 75 75 77 79 78 80 85 85 82 82 82 78 75 76 77 77 75 70 64 60 54 48 44 43 44 45 46 49 57 65 67 62 54 41 25 13 6 3 2 2 2 2 2 2 2 2 2 2 3 3 3 3 3 3 3
9 11 9 9 10 8 9 10 10 11 13 13 14 21 31 39 42 44 49 53 56 57 60 65 66 66 72 78 78 76 74 74 74 74 75 80 84 83 82 84 81 77 77 80 81 79 73 68 64 60 55 50 45 44 44 45 50 58 66 69 64 57 45 28 14 6 3 2 2 2 2 2 2 2 2 2 2 3 3 3 3 3 3 3 4
10 9 9 9 9 9 10 10 11 13 14 15 20 29 39 45 48 49 50 56 60 61 65 70 69 69 73 77 76 73 70 71 72 73 75 79 82 82 82 83 82 79 81 83 82 78 72 66 62 57 52 48 45 45 46 51 60 67 69 65 59 48 32 16 6 3 2 2 2 2 2 2 2 2 2 2 3 3 3 3 3 3 3 3 4
10 9 9 10 9 10 11 11 13 15 17 21 26 35 46 51 51 51 55 61 62 63 71 77 74 72 74 77 75 70 67 69 72 74 75 77 80 82 83 85 86 86 86 84 81 75 69 64 60 55 50 47 46 48 54 61 68 70 66 60 52 37 20 8 3 2 2 2 2 2 2 2 2 2 3 3 3 3 3 4 3 3 4 4 4
10 10 10 11 11 12 13 14 17 20 23 27 33 44 54 54 51 53 60 63 64 69 77 79 75 73 76 79 76 71 68 67 69 72 74 76 78 80 83 88 90 89 85 82 78 72 68 66 62 57 52 49 51 56 64 70 70 67 62 55 42 25 10 3 2 2 2 2 2 2 2 2 2 3 3 3 4 3 3 4 4 4 4 4 4
11 11 11 11 12 13 15 17 21 26 31 35 45 54 55 52 51 55 63 66 68 75 79 77 77 77 79 82 79 75 72 69 69 71 72 73 77 81 86 89 87 83 80 78 75 71 70 69 64 59 54 55 61 67 71 72 68 63 56 46 31 15 5 2 2 2 2 2 2 2 2 3 3 3 3 3 4 4 4 4 4 4 4 4 5
13 13 13 13 14 15 19 24 30 36 43 48 54 54 51 51 56 60 66 70 72 76 78 78 79 79 81 84 82 79 77 74 74 74 72 72 76 83 86 84 81 78 76 74 72 71 72 70 64 60 60 65 70 73 72 69 64 59 50 36 21 8 2 2 2 2 3 2 2 3 3 3 3 3 4 4 3 4 4 4 4 4 4 5 5
14 15 15 14 17 23 29 36 43 48 52 54 52 52 54 57 60 64 69 73 74 77 80 83 83 82 84 87 84 80 78 77 76 76 74 73 78 84 85 80 77 75 72 72 74 76 75 70 65 64 68 72 74 71 68 65 61 53 41 25 12 4 2 2 2 2 3 2 3 3 3 3 3 3 4 4 4 4 4 4 4 4 5 5 4
14 15 18 21 26 34 38 42 49 51 50 50 49 52 57 57 58 65 71 75 79 81 83 85 84 81 83 86 86 82 79 77 76 74 73 75 81 86 86 83 80 77 75 78 82 82 77 72 69 70 72 73 72 69 66 63 56 45 29 14 6 3 2 2 2 3 3 3 3 3 3 3 3 4 4 4 4 4 4 4 5 5 5 4 4
16 17 24 32 35 38 39 40 45 47 45 47 48 48 50 52 57 64 69 74 79 81 81 80 78 77 80 85 86 84 81 79 77 74 74 78 86 90 90 87 83 81 82 87 88 84 78 74 72 73 73 73 70 68 65 59 49 34 18 7 3 2 2 2 3 3 3 3 3 3 3 3 3 4 4 4 4 5 4 5 5 5 4 4 4
19 24 31 39 40 39 41 41 41 43 43 44 44 42 43 48 52 55 59 65 69 70 71 73 74 77 82 86 87 85 83 82 79 75 76 81 88 92 90 85 83 85 89 93 92 86 79 76 75 74 73 72 70 67 61 53 40 24 11 4 2 2 3 2 3 3 3 3 3 3 3 4 4 4 4 4 5 5 4 5 5 5 4 4 4
24 32 35 39 40 40 41 40 39 41 41 40 39 40 42 46 47 47 51 56 57 58 59 64 69 73 78 83 88 88 86 83 80 79 80 83 87 89 86 83 84 87 90 95 96 90 82 77 75 73 72 71 68 64 55 44 30 15 6 3 2 2 3 3 3 3 3 3 3 3 4 4 4 4 4 5 5 5 5 5 5 5 4 4 5
33 38 37 39 41 39 39 38 38 39 39 40 41 42 44 46 45 45 48 52 54 56 57 60 65 69 73 80 86 87 86 84 83 84 84 83 84 85 84 86 87 83 83 91 95 90 81 76 73 72 72 70 66 58 46 32 19 9 4 3 2 3 3 3 3 3 4 4 4 4 4 4 5 5 5 5 5 5 6 6 6 6 6 6 7
39 40 41 40 38 36 35 35 38 40 40 42 45 45 45 46 45 44 47 49 52 55 58 61 65 70 76 81 84 85 84 84 83 83 83 84 85 86 86 87 83 78 79 87 89 84 77 74 73 73 71 68 61 51 36 22 12 6 3 2 2 3 3 3 4 4 4 4 4 4 4 5 5 5 6 6 6 6 6 7 7 7 7 8 9
42 41 40 38 35 36 37 37 40 41 39 41 45 46 46 47 45 44 45 47 47 50 56 62 67 72 78 83 85 86 85 82 80 80 82 85 86 86 85 82 77 75 79 82 81 77 74 73 73 73 71 65 56 44 29 17 8 3 2 3 3 3 3 3 4 4 4 4 4 4 4 5 5 6 6 6 6 6 7 8 8 9 9 10 10
43 40 39 39 40 41 41 39 38 39 40 43 45 45 45 47 46 44 45 46 45 46 52 60 66 72 77 82 86 88 86 82 81 82 83 83 83 81 80 77 75 76 79 80 77 74 73 73 73 73 70 63 53 40 25 12 5 2 2 3 3 3 3 4 4 4 4 4 4 4 5 5 6 7 7 7 7 7 8 9 10 10 10 11 11
39 37 38 39 40 39 38 38 38 40 44 46 46 46 48 50 51 50 50 50 50 49 51 57 65 72 76 81 86 88 85 84 85 86 85 85 84 82 78 75 75 78 80 79 77 74 73 74 74 73 69 61 50 36 20 7 3 2 3 3 3 3 4 4 4 4 4 4 4 5 5 6 6 7 8 8 7 8 9 10 11 11 11 11 11
39 38 39 39 40 40 39 41 41 42 45 46 47 50 51 53 56 57 58 59 60 58 54 55 65 74 77 80 85 87 87 88 89 89 88 88 89 86 81 75 75 77 78 77 78 78 77 76 75 72 66 57 43 26 11 4 2 3 3 3 4 4 4 4 4 4 4 5 5 5 5 6 7 8 8 8 8 9 10 11 11 12 12 11 11
38 36 36 36 37 38 40 44 47 47 47 48 50 54 56 57 59 60 61 66 69 68 62 58 65 74 78 81 84 87 88 88 89 90 89 91 93 92 86 79 75 75 75 75 80 82 79 76 76 71 62 49 31 13 4 2 3 3 3 4 4 4 4 4 4 4 5 5 5 5 6 7 7 8 9 9 9 10 11 12 12 12 12 12 11
34 34 33 31 33 35 37 45 51 53 53 53 55 58 60 62 63 63 66 70 74 74 70 66 67 73 78 82 85 88 87 87 89 91 90 90 94 95 92 85 78 75 74 77 82 81 74 71 73 68 54 34 16 5 2 3 3 3 4 4 4 4 4 4 5 5 5 5 5 5 6 7 8 9 10 10 11 11 12 13 13 13 13 13 12
32 34 33 33 37 38 39 45 52 55 55 53 53 56 57 56 59 63 65 67 71 74 74 72 73 75 77 80 83 86 88 89 89 90 90 91 93 96 96 89 81 77 77 80 79 72 65 68 71 62 41 20 8 5 4 3 3 3 4 4 4 4 4 4 5 5 5 6 6 6 7 8 8 10 11 11 12 13 13 14 14 14 14 13 13
27 28 29 33 37 39 41 44 47 47 43 37 36 39 38 37 42 47 48 50 60 71 77 77 78 80 80 80 82 86 90 91 90 89 90 92 94 98 98 92 84 80 81 83 80 70 67 71 67 48 27 15 11 10 7 4 4 4 3 4 4 4 5 5 5 6 6 6 6 6 7 8 9 10 12 13 13 14 15 15 15 15 14 13 13
25 24 25 28 31 33 33 32 31 29 27 23 22 24 26 28 31 34 34 39 55 73 81 81 82 83 82 81 84 88 91 91 91 90 88 88 93 99 98 91 85 83 84 84 82 77 76 70 53 33 22 18 17 15 10 5 4 4 3 4 4 4 4 4 5 6 7 6 6 6 7 8 10 11 12 14 15 15 15 16 16 16 15 15 14
24 24 24 24 25 25 24 23 23 23 23 23 22 23 27 28 26 26 29 37 55 74 83 85 85 84 82 82 86 91 93 91 91 90 86 86 92 94 92 88 85 85 86 85 83 81 74 57 37 26 24 22 20 17 12 6 4 4 3 4 4 4 4 5 5 6 7 7 6 7 7 8 10 12 13 14 16 16 16 16 16 16 16 15 15
23 23 23 23 23 23 23 23 24 24 24 25 24 24 26 25 23 24 30 40 54 67 78 87 90 87 85 87 92 96 96 93 92 90 86 88 91 90 89 89 88 88 88 86 84 79 64 42 30 31 33 33 29 21 10 4 4 4 4 4 5 4 4 5 6 6 7 7 7 7 8 8 10 11 13 15 16 16 17 17 16 16 16 16 15
Wind_Speed
29 29 32 33 31 30 28 29 32 33 33 32 29 28 29 27 24 22 19 17 19 21 21 22 23 22 22 23 25 27 28 26 23 22 21 20 21 21 21 19 18 17 17 17 16 16 16 15 15 15 16 16 14 14 10 6 5 5 5 5 4 6 6 6 7 5 3 2 2 3 3 3 4 4 3 3 4 5 6 8 9 11 13 15 18
29 29 33 34 33 31 29 29 32 32 32 32 29 28 30 27 23 19 16 16 19 21 22 23 23 21 20 22 24 26 27 26 23 22 22 22 22 22 21 19 18 17 17 17 17 16 16 15 15 15 16 15 14 13 8 5 5 5 5 4 4 6 6 6 7 5 3 3 2 2 3 4 4 4 4 4 5 7 7 9 12 13 15 18 20
31 30 33 36 34 33 31 29 31 33 33 31 28 29 30 25 19 16 16 19 22 23 23 24 23 21 19 20 22 24 25 24 23 22 22 23 23 22 21 19 19 18 17 17 17 16 15 15 15 15 17 15 12 11 9 7 5 4 4 4 5 6 6 6 6 5 4 3 3 3 3 4 5 5 6 7 8 10 9 10 13 16 17 19 21
34 34 34 37 36 34 32 31 33 34 33 31 29 30 28 21 16 16 20 23 24 24 24 24 22 20 18 18 21 23 23 22 23 23 23 24 25 23 21 20 20 20 19 18 17 16 16 15 16 17 18 16 11 11 10 5 3 4 4 5 6 6 6 6 6 6 4 3 4 4 5 5 6 7 10 11 11 12 13 12 14 17 19 20 22
35 37 37 38 37 35 33 33 34 34 32 30 30 30 23 17 17 21 24 25 25 24 24 24 22 20 19 19 21 25 26 25 24 23 23 24 24 23 23 23 23 22 21 19 17 17 16 16 17 18 17 14 11 10 8 4 4 4 4 6 7 7 7 6 5 6 5 4 5 5 5 6 7 10 12 13 13 15 17 16 15 18 20 22 24
34 36 38 39 37 36 35 35 35 34 31 30 30 26 20 18 21 24 25 25 25 25 25 25 23 21 20 20 22 26 28 29 26 24 23 23 24 25 26 26 25 23 22 21 18 17 17 17 18 16 13 11 9 7 5 5 6 5 6 7 7 7 8 7 5 5 6 6 6 6 7 8 9 11 12 13 14 16 19 20 19 21 23 24 25
35 34 38 40 38 37 37 36 37 34 31 30 28 24 20 21 23 24 26 27 26 26 26 25 23 20 20 20 23 26 27 28 28 26 24 25 26 26 25 26 24 21 20 19 17 16 16 16 16 13 10 9 9 7 7 7 7 7 8 9 8 8 8 7 6 6 7 7 7 7 8 9 11 12 12 13 15 16 20 22 22 23 24 24 25
38 36 36 39 40 39 39 38 37 34 31 30 27 23 22 23 23 26 28 28 27 25 25 24 22 20 19 20 23 26 27 27 27 27 26 26 27 25 23 24 21 17 15 14 13 13 14 14 14 11 9 9 9 9 9 8 8 9 9 9 9 8 8 8 8 7 8 8 8 8 9 10 11 12 13 13 14 15 19 22 23 23 23 23 24
39 39 36 39 42 41 39 38 36 34 31 29 26 23 23 23 25 27 29 29 28 26 25 24 22 20 19 20 23 26 28 28 29 29 27 26 26 24 22 21 19 15 13 13 13 13 13 14 13 11 11 11 11 10 9 9 9 9 9 9 9 8 8 7 8 8 8 8 8 9 10 11 11 12 13 14 15 16 18 21 21 21 22 22 23
37 42 38 36 41 41 39 39 37 35 32 29 26 24 24 25 26 27 28 29 28 26 25 25 23 21 20 21 23 27 29 30 29 29 28 26 24 22 21 19 16 13 13 14 14 14 14 14 13 13 13 12 11 10 9 9 10 9 9 10 9 8 7 7 8 8 8 8 9 10 11 12 13 14 15 16 16 17 18 19 20 21 22 23 22
36 44 40 34 37 40 39 39 38 35 32 30 27 25 25 27 27 26 27 29 28 25 24 25 23 21 21 23 25 27 29 29 29 30 30 27 23 21 21 19 15 13 14 15 15 14 14 14 14 15 14 12 11 10 10 10 10 10 10 9 8 8 8 8 8 8 8 8 9 11 12 13 14 15 16 16 17 17 18 19 20 21 23 24 24
35 42 42 36 36 39 39 39 37 35 32 29 27 25 27 28 27 26 27 29 27 24 23 24 22 20 22 24 25 26 27 26 27 28 28 27 24 22 22 21 17 15 16 17 15 14 15 16 17 17 14 12 11 11 11 11 10 10 10 9 8 8 8 8 8 8 8 9 11 12 13 14 15 16 16 16 16 17 17 18 19 21 21 23 25
33 39 41 38 37 39 39 39 37 35 31 28 26 26 27 28 28 27 27 28 26 23 22 22 21 20 23 24 24 25 25 24 24 25 24 25 23 22 22 21 17 16 18 18 16 16 17 18 19 17 14 12 12 12 11 11 10 10 9 9 8 8 8 8 8 8 9 11 12 13 14 15 15 15 15 15 15 16 17 17 18 19 20 21 24
33 38 40 38 38 39 40 39 36 33 30 27 26 26 28 29 28 27 26 27 26 23 21 20 19 20 22 23 24 25 25 24 23 23 23 23 21 20 20 18 16 18 19 18 16 17 19 20 20 18 15 13 12 12 11 10 10 10 9 8 8 8 8 8 9 10 11 12 14 15 15 15 15 15 15 14 15 15 16 17 17 18 19 19 21
33 39 41 37 37 39 40 39 35 33 30 27 26 26 27 28 28 26 26 26 26 22 19 18 18 20 21 22 22 24 26 25 23 21 21 21 21 21 20 17 19 20 19 17 16 17 19 20 20 18 15 14 13 12 11 11 10 10 9 8 8 8 8 9 10 11 13 14 15 15 15 15 14 14 14 13 14 14 15 16 17 18 18 19 19
34 40 41 36 37 39 40 39 36 34 31 27 27 27 27 28 28 26 26 27 24 19 16 16 18 18 19 20 20 22 24 24 22 20 20 21 21 20 19 19 20 20 18 18 17 18 19 20 19 17 15 14 13 12 11 11 11 10 9 9 9 9 9 10 12 13 15 15 16 16 15 14 14 13 13 12 13 14 15 15 16 17 17 18 18
36 40 38 35 37 38 39 39 36 35 32 28 27 27 27 29 27 26 27 26 22 17 16 17 18 18 18 18 19 19 22 23 22 22 21 20 19 18 18 19 19 19 17 17 18 18 19 18 17 15 15 15 14 12 11 11 10 10 10 10 10 10 11 12 13 15 16 16 16 15 14 13 12 12 11 12 12 13 14 15 15 16 16 16 17
37 39 36 35 36 37 38 37 36 34 32 28 27 27 29 29 27 26 26 24 19 16 16 17 17 17 16 16 17 17 20 24 24 25 23 20 18 17 17 17 18 17 17 19 20 19 17 16 16 15 16 15 14 12 11 10 10 11 11 11 11 11 12 14 15 16 16 16 16 15 13 12 11 11 11 11 12 13 14 15 15 15 16 16 16
37 34 35 37 38 38 37 35 35 34 32 30 28 28 31 30 26 25 25 21 18 16 17 16 15 15 14 13 14 15 19 23 24 26 24 20 17 16 16 16 15 14 16 20 20 17 15 16 15 15 15 14 13 11 10 10 10 10 11 11 11 12 13 15 16 17 16 15 15 14 12 10 9 10 11 11 12 13 14 14 15 15 16 16 17
34 32 36 40 39 38 36 34 34 34 32 30 29 30 31 28 25 25 23 21 19 19 17 15 13 13 12 10 11 14 17 19 21 22 21 18 15 15 15 15 14 13 14 16 15 14 14 16 15 15 15 14 12 10 10 10 10 10 10 11 12 13 15 16 17 16 15 14 14 12 10 9 9 9 10 11 12 13 14 14 15 16 16 17 17
30 31 37 40 38 37 35 34 32 31 30 29 30 32 30 26 24 24 23 21 21 18 14 13 15 14 11 9 10 12 13 16 18 15 15 16 14 14 15 15 15 15 15 15 14 14 15 16 16 15 14 13 11 10 10 10 10 10 10 11 13 15 16 17 17 16 14 13 12 10 9 8 8 9 10 11 12 13 14 15 16 16 16 17 17
30 32 35 36 35 33 31 30 30 29 28 29 31 32 29 26 25 24 23 22 20 14 11 15 18 14 10 8 10 11 10 13 16 14 13 15 16 16 17 17 17 17 17 17 15 14 15 16 16 15 15 13 12 11 11 10 10 10 11 12 15 16 17 17 16 14 12 11 10 8 8 7 8 9 10 11 12 13 14 14 15 15 16 16 17
32 33 33 32 31 29 27 27 27 27 28 30 32 30 27 25 25 24 23 22 17 13 12 16 16 11 9 10 10 11 11 12 15 16 16 17 16 16 16 17 19 20 19 17 15 15 15 15 15 16 15 14 12 12 11 11 10 11 12 14 16 17 17 16 14 12 11 9 8 7 7 7 8 9 10 11 12 13 13 14 14 15 15 16 16
33 33 32 31 29 27 26 26 26 27 29 32 31 29 26 25 25 24 22 20 17 15 14 14 13 11 12 12 11 12 14 15 14 16 18 17 16 16 16 18 21 20 17 15 14 15 15 14 15 15 15 14 13 13 12 11 11 12 13 16 16 16 16 13 12 10 8 7 7 7 7 7 8 9 10 11 12 13 13 13 13 14 15 15 16
33 32 31 30 27 26 26 26 27 29 31 32 31 28 26 25 25 23 21 20 18 16 15 14 13 13 14 14 13 14 15 15 13 15 17 16 15 15 14 18 21 18 15 14 14 15 15 14 15 15 15 15 14 13 13 12 12 13 15 16 16 15 12 10 9 7 6 5 6 6 6 7 8 9 10 11 12 13 13 13 13 14 15 15 16
32 31 30 29 26 26 27 27 28 30 32 32 30 27 26 25 25 23 21 21 19 17 16 15 14 14 14 15 15 14 13 13 12 13 14 14 14 12 12 16 19 17 15 15 15 15 15 15 16 16 16 15 15 14 14 13 14 15 15 15 14 12 10 8 7 5 5 5 5 5 6 7 8 9 10 11 12 12 12 13 13 14 15 15 16
32 31 29 27 26 27 28 28 28 30 32 31 29 27 26 27 25 22 21 21 19 17 17 16 15 13 14 15 14 13 12 12 13 12 12 13 14 12 11 14 17 17 16 15 15 15 16 16 16 16 16 15 15 15 14 14 15 15 15 14 12 10 8 7 6 5 4 4 4 5 6 7 8 9 10 11 11 11 12 12 13 14 15 16 17
31 30 28 27 27 28 28 28 29 31 31 30 28 27 28 27 24 21 20 20 19 18 17 17 16 12 12 14 14 13 13 13 13 12 12 13 14 13 12 14 17 17 16 16 16 16 17 17 16 16 16 15 15 15 15 15 15 14 14 12 10 8 7 6 5 4 4 3 3 4 6 7 9 9 10 10 10 10 11 12 13 14 15 16 16
30 29 28 27 27 27 28 29 30 31 31 29 28 29 29 26 22 19 19 19 19 19 18 17 16 14 13 14 14 13 13 13 13 12 11 11 12 13 14 16 18 18 17 17 17 16 16 16 15 15 15 15 15 15 15 15 14 13 12 10 9 7 6 6 5 4 4 3 3 4 6 7 8 8 8 9 9 10 11 12 13 14 15 15 15
29 28 27 27 27 28 29 30 31 30 30 28 29 28 26 23 20 18 18 19 20 19 17 17 18 17 15 15 15 14 13 12 13 13 12 11 12 14 15 16 18 18 18 17 17 17 17 15 15 15 15 15 15 15 15 14 13 12 10 9 8 7 6 6 5 5 4 3 3 4 6 7 7 7 7 7 8 9 10 11 12 13 14 14 14
27 26 27 27 28 29 30 31 30 29 28 27 26 25 23 20 19 18 19 19 19 18 18 19 19 18 17 16 17 16 14 12 13 14 14 14 14 16 17 17 18 18 18 17 17 18 17 16 15 16 16 15 15 15 14 13 12 10 9 8 8 7 7 6 6 5 4 3 3 5 6 6 6 6 6 7 7 9 10 11 11 12 12 12 12
26 26 27 28 28 30 31 30 28 26 25 24 23 22 21 19 19 18 19 19 19 19 20 20 18 17 17 17 18 18 16 15 14 14 16 17 18 19 19 19 18 18 18 18 18 18 17 16 16 16 16 15 15 14 13 11 10 10 9 9 8 8 8 7 6 5 3 2 3 4 5 5 5 5 5 6 7 8 9 9 10 10 11 11 11
27 28 28 28 29 30 30 27 24 22 23 23 22 20 19 18 18 19 20 20 20 21 21 20 18 17 17 17 18 19 19 18 17 16 17 18 19 20 19 19 18 18 17 18 19 18 18 17 17 16 16 15 14 13 12 11 10 10 10 9 9 9 8 8 6 5 3 3 3 4 4 4 4 4 4 5 6 7 8 8 9 9 10 10 10
25 27 28 28 29 28 26 24 23 23 23 22 20 19 18 18 19 19 20 20 20 20 20 19 18 18 18 19 19 19 19 19 18 18 19 19 20 19 19 18 18 18 18 18 18 18 18 17 17 16 16 14 13 12 11 10 10 10 10 10 10 10 9 8 6 4 4 4 4 4 4 4 3 3 4 5 6 6 6 7 8 8 8 8 9
22 25 27 28 28 27 25 24 24 23 22 20 20 19 19 20 20 19 20 21 20 20 19 19 19 19 20 20 20 20 20 19 19 19 20 20 20 19 19 18 18 18 19 19 19 19 18 17 17 16 15 13 12 12 11 11 11 11 11 11 11 10 9 7 6 5 5 5 4 4 4 4 3 2 3 4 5 5 5 6 7 7 7 7 7
23 24 26 27 27 26 24 23 23 22 21 21 21 21 21 22 21 20 22 22 20 20 20 20 20 21 21 20 21 21 20 20 20 20 20 21 21 20 19 18 18 18 19 19 19 19 18 18 18 17 15 13 12 12 11 11 12 12 13 13 12 11 9 8 7 6 6 5 5 4 4 3 3 2 2 3 4 4 5 6 6 5 6 7 8
24 25 27 27 26 24 23 22 22 22 22 22 22 22 22 21 21 21 22 21 19 20 21 21 21 20 20 20 21 20 20 19 20 20 21 22 21 20 19 18 18 18 19 20 20 20 19 19 18 16 14 13 12 12 12 12 13 14 14 14 13 11 9 8 8 7 6 6 5 4 4 3 2 1 2 2 3 3 4 5 5 5 5 6 8
25 26 27 26 25 24 23 22 22 22 23 22 21 21 20 20 20 20 20 18 18 19 21 22 21 19 19 19 20 20 19 19 20 21 21 21 22 21 20 18 18 19 19 20 21 21 19 18 17 15 13 12 12 12 13 13 14 15 15 14 13 11 10 9 8 8 7 6 5 4 3 3 2 1 1 1 1 2 3 4 4 4 5 6 7
25 25 25 25 24 24 24 23 23 23 22 21 21 20 20 20 20 20 19 18 16 17 20 20 19 18 18 19 20 20 19 20 20 21 20 21 22 21 20 20 19 18 18 20 21 20 19 18 16 14 13 12 13 13 14 14 15 15 15 15 13 12 11 10 9 9 8 6 5 5 4 3 2 1 1 1 0 1 2 3 3 4 5 7 8
26 26 26 25 26 26 26 25 24 23 21 21 21 21 20 20 20 19 19 17 16 17 18 18 17 16 17 19 20 20 20 20 20 20 20 21 21 20 20 20 19 18 18 19 20 19 18 16 15 13 13 13 13 14 14 15 16 16 16 15 13 13 12 11 10 9 8 6 5 5 4 4 3 3 2 2 1 0 1 2 2 3 5 7 8
26 27 27 27 27 26 26 24 23 22 21 22 22 22 21 21 20 19 19 18 17 17 16 16 16 16 17 20 20 21 21 20 19 19 20 20 20 20 19 19 19 18 18 18 18 18 17 15 14 14 14 14 14 15 15 16 17 17 16 15 14 13 13 12 11 9 8 6 6 5 5 5 5 4 4 3 2 1 0 1 2 3 5 7 8
25 26 26 26 26 25 24 23 22 22 23 23 23 23 21 20 19 19 19 17 15 15 15 15 16 16 18 19 21 22 22 21 19 19 20 20 19 19 19 20 20 19 18 17 17 17 15 15 15 15 14 14 15 15 16 17 18 18 17 15 14 13 13 12 11 9 8 7 6 6 6 6 6 5 5 4 3 2 1 1 2 4 5 6 8
25 24 24 24 23 22 22 21 21 22 23 23 23 22 21 20 19 19 17 15 13 12 13 15 17 18 19 20 21 23 22 20 19 19 20 20 20 20 20 21 21 20 18 17 17 16 16 16 16 16 15 15 16 16 18 19 19 18 17 15 15 14 13 12 10 9 8 7 7 7 8 8 7 7 6 6 4 3 2 2 3 4 5 7 8
23 22 21 20 19 19 18 19 20 21 22 23 23 22 21 20 19 18 16 14 13 12 13 16 18 20 21 21 22 22 21 20 20 20 20 21 21 22 21 22 22 20 19 18 17 17 17 17 17 17 16 16 17 18 19 20 20 19 17 16 16 14 12 11 10 9 8 7 7 8 9 9 8 8 7 7 6 5 4 4 4 5 6 7 9
23 22 21 19 17 15 15 16 18 20 21 22 22 22 22 21 19 18 17 16 15 14 15 17 19 21 22 22 22 22 22 22 22 22 22 23 23 23 23 22 23 22 21 20 19 18 19 19 18 18 18 18 18 19 21 21 20 19 18 17 16 14 12 11 10 8 7 7 8 9 10 10 10 9 8 8 7 6 6 6 6 6 7 8 9
19 19 19 17 15 14 14 14 16 18 19 20 21 21 21 20 19 18 18 17 17 16 18 19 21 22 23 23 24 24 24 24 24 24 25 25 25 24 23 23 24 24 22 21 20 20 20 20 19 19 19 19 20 21 21 21 20 19 18 17 15 13 12 11 10 9 8 9 9 10 11 11 11 10 10 9 8 7 7 8 8 8 8 9 10
16 16 16 15 14 13 14 14 15 15 17 17 18 18 18 18 18 18 19 19 18 18 20 21 22 23 24 24 24 24 24 25 26 26 26 26 25 25 25 24 24 24 23 21 20 21 21 19 19 20 20 20 21 22 22 22 21 20 18 16 15 14 12 11 11 11 10 10 11 12 13 12 12 11 11 10 9 9 9 9 9 9 10 11 11
17 16 16 14 13 13 14 14 14 15 15 15 15 16 16 16 17 18 19 20 19 19 21 22 23 24 24 24 24 24 24 25 26 25 25 25 26 26 26 25 25 24 22 21 20 20 20 20 21 21 21 21 22 22 22 22 21 19 18 17 16 14 14 13 12 11 11 11 12 13 14 14 13 13 12 12 10 10 11 11 11 12 12 12 12
17 17 16 16 15 15 15 14 14 15 15 16 16 16 16 16 18 19 19 20 20 20 22 24 24 25 25 25 24 24 25 26 25 25 25 24 24 25 25 26 25 24 23 21 20 20 21 21 22 22 21 22 22 22 22 22 21 19 18 17 16 15 15 13 12 11 12 13 13 14 14 15 14 14 13 13 12 12 13 13 13 13 13 14 14
17 17 16 16 16 16 16 16 16 16 16 17 18 18 17 18 19 19 19 19 19 21 23 25 26 27 27 26 24 24 25 25 24 24 23 22 21 23 24 25 25 24 23 22 22 22 23 23 23 23 22 22 23 22 22 21 21 20 19 17 16 15 14 12 12 13 13 13 14 15 15 15 15 15 14 14 13 14 14 14 14 14 14 14 15
17 17 17 17 16 16 17 17 17 17 17 18 18 18 18 18 18 17 17 18 18 20 23 25 27 28 27 25 24 25 25 24 23 24 23 22 22 23 24 25 25 24 24 24 24 24 24 24 25 24 22 23 23 22 22 22 21 20 19 18 17 16 14 13 14 14 14 14 14 15 16 16 16 16 15 15 15 15 15 16 16 16 16 16 16
Wind_Direction
229 228 221 219 222 223 222 218 216 214 214 217 218 218 222 228 234 240 251 263 264 261 259 258 258 261 265 265 259 247 236 229 223 221 220 223 228 231 235 235 236 240 240 237 235 238 242 242 245 248 247 251 259 258 242 210 225 258 273 274 283 286 283 279 274 278 287 281 288 281 273 284 289 288 279 265 284 300 311 315 316 319 321 322 325
225 227 220 218 219 218 219 217 214 215 216 218 218 220 226 232 238 249 265 268 262 259 257 256 258 260 264 265 259 249 239 233 227 225 224 226 230 232 233 234 235 237 238 236 234 236 239 239 242 246 250 256 262 261 251 230 238 254 261 261 280 287 284 278 273 276 276 280 303 268 243 277 295 297 292 285 293 299 302 308 313 317 320 321 324
220 223 220 218 218 216 216 214 213 216 217 216 218 224 231 237 247 262 268 257 252 253 253 255 257 256 260 263 257 247 241 236 231 228 227 229 231 233 233 233 234 235 235 234 233 234 234 237 240 242 250 253 256 258 246 231 238 249 251 259 281 289 287 278 269 269 273 285 304 277 265 295 302 294 293 295 298 298 300 309 312 314 317 320 323
218 221 220 219 217 215 212 211 215 217 215 215 221 229 235 244 259 264 256 249 249 249 251 254 256 254 256 260 255 243 236 234 232 227 227 230 232 234 234 233 233 232 231 228 227 229 230 235 239 242 249 245 238 247 247 238 248 247 250 270 283 285 284 281 266 256 262 276 284 277 284 298 291 286 297 302 301 299 301 307 309 311 315 319 322
217 219 219 219 217 213 211 214 217 214 215 219 225 233 240 252 256 253 250 249 250 251 252 256 257 255 255 258 255 245 234 230 228 225 225 230 232 233 233 231 230 228 226 224 222 223 225 230 239 245 249 243 234 243 253 263 261 252 260 277 286 286 278 274 258 245 248 256 262 267 275 277 277 288 301 303 301 300 303 309 313 315 318 322 325
216 217 218 219 215 212 213 215 214 212 217 223 228 235 241 247 248 250 252 249 251 253 255 258 258 257 258 257 255 248 239 233 232 230 229 231 232 230 230 230 227 222 218 215 213 217 222 229 240 246 247 251 257 258 259 258 254 260 273 280 290 292 280 270 251 241 248 253 254 258 264 270 278 288 296 300 303 304 305 311 320 322 324 327 328
212 213 215 216 213 211 212 212 211 214 220 224 230 236 238 242 246 249 248 246 250 255 257 260 259 257 259 259 255 249 242 238 238 238 235 235 234 230 231 234 228 220 216 213 209 214 222 231 241 246 245 258 272 270 262 258 257 269 279 286 292 289 281 272 255 244 246 254 261 265 271 277 284 289 292 298 305 307 306 312 321 325 326 327 328
212 213 213 212 211 210 210 210 213 217 221 226 231 235 238 243 244 243 243 244 248 252 255 259 260 257 258 262 260 251 241 237 238 239 238 238 240 236 235 237 233 225 222 220 216 217 226 234 239 241 246 258 266 264 263 262 263 272 280 287 288 282 274 264 255 249 246 250 260 267 271 275 279 286 292 298 305 308 308 313 321 324 325 328 329
211 216 215 210 208 209 210 212 216 219 222 228 232 236 240 241 238 237 241 246 247 249 251 254 256 256 259 264 262 250 240 237 237 239 239 236 237 237 236 237 232 222 217 220 222 224 231 236 236 235 240 250 256 258 262 261 264 273 279 280 280 276 267 258 254 255 257 261 266 272 277 280 283 290 298 303 308 310 309 313 319 322 325 328 330
209 215 217 213 209 209 211 215 218 221 224 229 233 238 239 235 232 233 240 246 248 248 249 251 253 255 259 262 257 249 242 240 238 238 240 234 228 232 236 231 224 216 213 217 222 228 233 237 235 232 236 245 252 255 259 259 264 270 273 274 275 272 263 257 256 260 268 274 279 284 288 293 297 301 306 309 312 313 312 315 321 325 327 327 330
209 213 215 214 211 210 213 217 220 223 225 229 235 238 233 228 228 230 237 244 245 246 247 250 251 254 258 258 254 248 244 243 242 241 242 238 229 229 233 225 211 208 215 219 221 226 232 236 234 232 235 240 243 248 252 255 261 265 267 272 273 268 262 260 262 267 274 279 284 290 294 299 303 306 310 312 313 315 317 321 325 328 329 327 329
208 212 214 215 213 211 213 217 220 223 226 233 237 234 229 227 228 229 235 241 243 244 247 250 252 255 258 258 254 250 245 243 245 245 244 240 232 227 229 226 212 206 218 223 220 219 224 232 233 234 237 236 235 242 247 251 258 261 265 269 267 263 261 262 266 271 277 284 289 294 298 302 305 309 312 314 316 318 321 325 327 330 331 328 328
205 209 214 217 213 211 213 217 220 223 228 234 233 228 228 230 231 231 235 241 244 243 247 253 257 260 259 257 254 252 246 240 241 246 246 244 239 227 225 227 215 209 219 223 220 219 224 229 232 233 234 234 234 238 243 250 256 258 262 264 262 261 263 266 272 279 283 289 294 298 302 305 308 311 313 316 319 321 323 326 329 330 331 330 330
203 206 212 215 213 213 215 218 220 224 228 230 227 224 228 232 234 235 238 242 243 243 249 257 260 260 257 252 250 249 244 238 237 242 243 243 240 228 221 216 210 213 221 222 220 223 226 228 230 230 229 231 234 236 242 250 253 254 258 260 259 261 265 271 277 283 288 293 297 301 303 306 310 312 315 317 319 322 324 327 329 330 330 333 334
202 207 212 214 214 214 215 218 221 224 226 225 225 226 229 234 237 237 240 243 241 243 252 257 256 256 254 249 249 250 246 242 241 243 243 238 232 224 216 208 210 217 223 223 222 227 229 227 226 227 226 228 232 235 243 251 251 250 255 257 259 263 268 275 282 287 292 295 298 301 304 307 311 314 316 318 320 324 327 330 332 333 334 335 336
202 209 211 212 215 215 214 218 221 223 223 223 227 230 232 237 239 238 241 241 239 243 248 247 248 253 254 252 253 252 247 244 245 247 244 234 225 218 211 207 215 222 225 226 228 228 225 222 224 226 224 226 230 235 244 251 250 248 252 257 261 267 272 279 285 289 293 296 300 303 306 309 312 314 316 319 324 328 331 333 334 335 337 337 337
206 211 210 210 215 215 215 218 220 221 222 224 229 232 233 239 240 238 239 238 236 237 234 237 246 252 255 256 256 250 242 241 243 246 240 225 217 215 211 211 220 227 228 228 226 218 212 217 226 225 222 224 228 235 246 252 250 249 253 259 265 269 275 282 287 291 295 300 303 305 307 309 312 314 318 323 328 332 334 335 337 337 339 339 340
210 213 209 210 215 217 217 218 218 220 223 227 231 232 233 237 240 239 238 235 233 227 225 235 245 249 254 258 255 247 241 239 240 242 234 216 213 217 215 218 224 229 231 226 216 206 207 219 226 221 220 223 227 236 249 253 252 252 254 260 265 270 278 285 290 295 299 303 305 306 307 308 311 316 322 328 332 336 337 337 339 340 340 342 344
210 209 207 212 217 218 218 217 219 224 227 230 230 230 232 236 238 238 233 229 224 216 219 231 239 246 253 255 250 244 240 238 240 241 227 208 210 219 219 221 221 224 230 222 208 200 208 221 221 219 219 220 227 239 249 252 252 252 254 260 266 275 283 288 293 298 302 305 306 305 304 307 314 321 327 333 336 338 340 340 341 342 344 346 348
209 207 208 214 218 219 219 220 223 227 229 229 227 229 232 235 237 232 225 220 215 209 217 229 236 241 244 250 253 245 240 237 238 235 215 197 207 218 218 221 218 216 215 207 201 204 215 222 221 219 218 220 228 239 245 248 248 250 255 263 273 281 286 291 297 300 304 306 305 302 303 309 319 326 331 337 340 341 342 343 344 346 349 350 352
204 205 210 214 218 220 220 222 223 224 224 223 224 227 230 233 233 224 218 217 211 207 218 233 236 233 230 249 257 241 233 230 227 216 192 192 209 213 214 219 214 206 199 198 207 214 219 224 222 218 217 221 230 236 241 244 246 253 262 271 279 285 290 296 300 302 304 304 300 299 304 314 325 332 336 340 342 344 345 346 348 350 352 353 355
201 204 209 212 215 218 219 221 220 219 219 220 222 225 229 231 227 217 214 218 214 212 230 242 242 237 227 240 243 226 221 221 214 198 188 202 210 209 213 214 206 199 197 204 214 219 223 226 222 218 218 223 229 234 240 245 251 260 269 278 284 289 296 300 300 300 300 299 297 299 308 320 331 336 340 343 345 347 348 350 351 352 354 355 355
203 206 210 212 215 218 219 219 218 217 218 219 220 224 228 228 221 213 216 221 218 214 229 240 241 234 221 227 229 217 213 212 203 193 198 211 212 211 214 209 202 200 200 205 214 223 228 226 221 219 220 225 231 235 241 248 257 267 275 282 289 295 300 299 296 294 294 294 297 303 314 325 335 339 343 347 348 349 351 353 354 354 356 356 355
206 209 211 213 215 216 216 215 215 217 218 218 220 223 225 222 215 213 218 220 212 209 220 229 223 212 214 223 225 215 210 210 204 195 200 210 211 210 210 205 201 202 203 208 215 225 229 226 222 220 222 229 234 237 244 252 260 271 279 286 293 298 300 295 289 287 288 293 300 307 319 330 337 342 346 348 349 351 352 353 354 356 357 357 356
207 210 210 213 214 213 212 212 215 218 218 218 220 223 222 216 212 213 217 216 210 209 217 219 209 206 212 216 217 215 213 212 207 198 199 204 204 202 204 203 200 201 208 214 218 227 232 228 223 223 227 232 236 240 247 254 263 273 281 287 294 298 295 287 280 281 284 292 301 311 323 333 339 343 347 349 350 352 352 352 354 357 359 358 357
208 209 210 212 210 208 209 211 215 218 218 219 221 221 217 211 210 212 215 216 212 211 216 217 212 210 211 210 209 213 214 210 207 206 200 196 196 195 194 196 198 200 207 214 221 230 234 230 225 227 231 235 238 243 248 256 265 273 280 286 291 291 285 276 273 276 280 288 301 314 324 333 340 347 349 349 351 350 350 352 356 359 359 359 0
208 208 209 208 205 206 210 213 216 217 217 218 219 218 212 209 209 210 212 214 213 213 217 219 217 212 208 206 204 204 203 202 208 212 200 188 190 195 194 193 197 202 208 216 226 232 232 229 228 230 234 237 241 245 250 257 264 272 279 283 284 282 276 268 266 267 272 284 301 312 325 336 344 349 349 348 349 347 349 355 359 1 1 2 5
206 205 204 203 204 209 212 214 215 214 215 216 215 212 209 208 207 209 212 212 210 213 216 217 218 217 211 206 201 195 195 201 208 209 202 195 192 198 203 200 200 206 213 221 229 231 230 230 231 234 238 241 243 246 251 256 264 271 275 277 276 272 265 257 254 256 263 278 294 311 330 340 345 347 346 345 345 346 354 359 1 3 4 7 9
202 200 200 203 207 211 212 212 212 212 213 213 210 207 206 205 206 210 212 209 207 213 216 216 217 219 216 209 203 198 199 206 208 204 204 206 200 201 206 204 203 212 221 226 229 229 228 230 234 238 241 243 245 247 251 257 264 269 270 269 266 260 251 244 242 246 256 268 291 318 335 340 341 342 341 341 344 351 359 2 5 8 8 11 12
196 196 200 206 208 208 209 209 209 210 209 207 205 204 202 202 206 211 209 206 209 214 215 215 217 221 219 210 205 204 203 205 206 203 207 213 208 204 204 205 210 219 226 229 228 228 229 232 236 240 242 243 245 247 252 258 262 263 263 262 256 247 237 232 234 240 247 262 298 324 334 334 335 336 336 340 347 357 4 7 11 13 12 14 13
194 197 200 204 205 204 205 207 207 206 204 202 201 199 198 202 209 210 207 208 211 213 214 216 219 221 219 212 207 206 205 202 202 207 212 215 213 209 207 212 220 226 227 227 226 227 230 235 239 241 242 243 245 249 253 256 257 257 258 253 245 234 227 227 229 234 238 263 306 324 326 325 328 331 334 342 353 2 9 12 15 17 17 16 13
194 197 198 199 201 202 203 205 204 200 198 197 195 194 198 205 209 208 207 209 210 211 214 216 219 221 218 212 209 210 212 211 208 210 213 214 215 214 215 220 225 225 224 223 225 228 233 238 240 240 241 242 244 247 249 250 252 254 251 243 233 224 221 223 224 226 235 272 303 313 314 314 319 324 332 347 357 7 15 17 19 21 21 18 14
190 193 196 198 199 202 201 199 194 189 189 190 191 195 200 204 206 207 208 211 212 214 217 218 223 225 219 213 212 212 216 218 218 219 219 216 215 215 218 221 222 223 223 223 227 231 235 237 238 237 238 240 242 243 243 245 248 247 243 234 224 218 217 219 220 223 238 267 284 294 297 301 306 314 331 351 3 13 21 22 21 23 24 21 19
188 192 197 198 197 195 192 186 182 182 184 187 190 193 196 199 204 207 210 214 215 215 220 224 228 228 221 217 215 213 216 220 221 224 222 217 214 215 217 219 220 223 225 227 230 233 234 235 236 236 237 238 239 240 239 242 244 241 234 224 217 214 214 215 219 225 240 255 268 277 281 285 290 307 338 360 11 20 27 28 26 28 29 26 23
192 194 195 193 188 184 180 178 178 180 184 188 189 189 192 199 205 206 210 216 217 217 223 228 229 228 224 221 217 214 216 219 223 226 224 219 215 215 217 219 221 225 228 228 230 231 232 236 238 237 237 237 237 237 237 239 238 231 223 216 212 212 211 214 220 228 237 248 257 263 267 270 277 309 351 12 22 22 26 34 34 35 36 30 26
194 192 186 182 180 179 177 176 178 182 186 188 188 190 195 199 202 205 211 216 215 216 222 227 227 225 222 219 217 215 215 218 224 227 224 219 217 217 219 221 224 228 231 232 231 229 230 237 240 238 237 235 234 233 233 233 230 222 215 210 209 209 210 214 220 226 236 244 249 253 258 262 274 317 1 23 32 24 26 39 43 39 36 29 25
190 185 179 177 177 175 175 177 180 184 186 186 188 192 197 201 203 209 215 218 218 219 222 225 225 222 217 215 215 215 215 218 224 226 222 218 218 219 221 224 229 234 236 234 231 228 231 236 238 236 234 231 229 229 229 228 224 217 211 207 207 209 210 214 220 226 234 239 242 247 251 260 274 316 11 30 40 28 25 39 41 32 29 26 24
184 179 176 175 173 172 174 178 181 182 183 186 190 194 198 202 207 213 218 222 224 224 224 225 224 221 216 215 215 216 217 219 222 223 221 220 222 224 225 229 234 237 236 231 228 227 231 235 235 232 230 227 226 226 226 224 218 212 209 208 208 209 210 215 220 226 232 234 238 242 242 248 260 274 30 38 49 33 28 38 35 24 23 22 21
175 174 172 170 170 171 174 177 179 181 182 186 190 194 197 202 208 213 219 225 227 225 223 224 225 222 217 215 216 216 215 215 217 220 221 222 225 227 228 231 235 236 230 224 222 224 229 231 230 229 228 225 224 223 220 217 213 210 210 210 210 209 212 217 220 224 229 233 238 242 235 231 233 216 189 175 102 39 39 43 29 18 21 21 18
170 169 167 167 170 173 175 175 177 179 182 185 190 195 199 203 207 212 217 224 229 228 226 227 227 224 217 213 213 213 212 214 218 221 223 224 225 227 229 231 232 229 221 216 216 220 225 227 227 227 226 224 222 219 215 213 212 213 213 214 214 213 213 216 219 222 226 231 238 240 231 224 219 207 206 206 201 196 50 44 17 12 20 17 17
167 166 166 169 172 173 173 174 175 178 184 188 192 196 200 202 205 210 214 219 225 229 232 234 232 227 219 213 212 213 216 218 220 221 222 223 225 228 231 231 228 223 217 215 218 223 226 226 226 227 227 224 221 217 214 212 213 215 214 214 216 217 216 217 218 221 226 231 236 236 228 223 217 209 211 216 222 235 32 22 352 4 12 9 12
164 166 168 170 171 172 173 175 179 183 187 190 193 199 202 205 207 209 212 218 224 230 236 237 235 229 222 217 215 217 221 222 220 220 222 226 229 231 232 231 227 222 219 221 225 228 229 230 230 231 230 226 222 218 214 212 213 215 215 215 217 219 219 218 219 224 229 232 234 229 224 223 218 212 215 224 229 236 260 311 332 351 357 359 5
166 167 169 170 173 176 178 181 186 189 190 193 198 202 205 208 209 210 213 220 226 231 235 236 233 229 224 221 219 221 225 226 223 224 228 233 235 236 234 231 227 223 222 224 227 232 235 236 235 234 232 228 224 220 216 214 213 214 215 215 216 218 220 223 226 230 233 235 233 228 224 223 220 216 219 227 232 235 251 282 307 326 339 347 351
164 166 168 172 177 181 186 191 195 197 198 201 205 207 208 212 214 217 222 228 231 234 235 235 233 229 225 224 223 224 228 229 228 230 234 237 239 239 236 233 229 224 224 227 230 236 241 241 239 236 231 227 224 219 216 214 214 214 214 214 216 218 221 226 232 236 238 240 235 227 225 224 223 221 224 231 238 242 253 274 291 309 327 335 336
166 169 171 174 178 182 190 198 203 206 208 210 211 212 213 217 221 226 234 238 238 241 241 237 234 231 227 226 226 227 231 233 233 235 236 238 240 240 237 234 230 227 226 229 233 238 240 240 239 235 230 226 222 217 214 214 215 214 214 215 217 219 222 228 234 238 239 238 233 228 227 226 225 225 228 234 241 246 256 272 284 300 315 321 327
181 183 185 192 197 197 199 203 207 212 215 217 217 218 219 221 224 231 238 241 241 243 240 236 234 231 229 227 227 229 233 235 235 236 237 238 239 239 236 233 231 229 228 230 235 237 234 234 235 233 228 223 218 214 212 214 215 214 215 216 217 220 225 230 232 234 235 236 233 230 228 228 228 228 230 236 242 249 260 271 282 296 306 313 324
189 191 195 202 207 207 206 206 208 214 219 222 222 222 222 224 226 230 236 240 240 239 236 233 232 231 230 230 230 231 232 233 234 235 238 240 240 238 235 231 228 229 229 232 235 234 231 233 234 231 226 219 215 213 213 214 214 214 215 217 219 222 225 227 230 234 236 235 233 230 229 230 230 230 233 238 244 252 262 272 281 290 298 307 320
188 189 192 193 194 198 202 204 207 211 218 222 224 224 224 225 227 230 236 240 240 236 234 233 231 230 231 232 231 231 231 234 236 238 241 243 241 237 231 226 226 227 228 230 233 234 234 234 232 229 224 218 214 215 216 216 216 215 216 219 221 222 224 227 232 237 237 236 234 232 231 232 232 233 237 241 248 256 264 273 282 289 296 305 314
189 190 191 190 190 194 197 202 207 213 218 223 226 226 226 227 230 233 238 241 240 236 234 233 231 230 231 232 231 232 233 235 237 241 243 241 236 228 222 221 223 226 226 226 229 231 232 232 229 226 222 219 218 219 218 217 217 218 220 222 223 225 228 233 236 237 237 238 238 235 233 233 234 236 240 244 251 258 264 271 280 289 298 306 313
195 196 196 196 197 200 203 208 213 219 224 228 231 230 228 230 234 237 239 242 241 238 236 235 233 231 231 231 231 232 233 234 237 240 239 233 225 220 219 221 225 228 228 229 228 228 227 226 225 223 220 219 222 222 221 219 219 220 222 223 225 229 233 235 236 236 237 239 239 237 235 234 235 239 242 247 253 260 267 273 279 286 295 305 312
203 205 206 207 208 211 215 218 222 225 229 233 235 234 233 234 238 240 241 242 242 241 241 239 236 235 234 233 232 232 234 235 236 235 230 222 218 220 223 227 230 232 233 232 229 226 224 223 223 222 221 222 224 223 221 220 220 221 222 223 225 230 232 233 235 238 239 240 239 238 236 236 238 241 244 249 255 261 268 275 281 287 295 302 308